| time (UTC) | temp F | wind direction | speed MPH | gust MPH | rain 1hr in | rain 24hr in | rain mn in | humidity % | barometer mb |
| 20260904013042 | 64 | 108 | 0.0 | 0.0 | 0.00 | 0.30 | 0.30 | 96 | 1011.0 |
| 20260904011543 | 64 | 108 | 0.0 | 0.0 | 0.00 | 0.30 | 0.30 | 96 | 1011.1 |
| 20260904010050 | 64 | 108 | 0.0 | 0.0 | 0.00 | 0.30 | 0.30 | 96 | 1010.9 |
| 20260904004556 | 65 | 108 | 0.0 | 0.0 | 0.00 | 0.30 | 0.30 | 95 | 1010.8 |
| 20260904003041 | 65 | 108 | 0.0 | 0.0 | 0.00 | 0.30 | 0.30 | 95 | 1010.5 |
| 20260904001539 | 65 | 108 | 0.0 | 0.0 | 0.00 | 0.30 | 0.30 | 94 | 1010.4 |
| 20260904000051 | 66 | 108 | 0.0 | 0.0 | 0.00 | 0.30 | 0.30 | 93 | 1010.5 |
| 20260903234543 | 67 | 108 | 0.0 | 0.0 | 0.00 | 0.30 | 0.30 | 92 | 1010.1 |
| 20260903233038 | 68 | 108 | 0.0 | 0.0 | 0.00 | 0.30 | 0.30 | 91 | 1010.0 |
| 20260903231538 | 69 | 108 | 0.0 | 0.0 | 0.00 | 0.30 | 0.30 | 89 | 1010.2 |
| 20260903230039 | 71 | 108 | 0.0 | 1.0 | 0.00 | 0.30 | 0.30 | 87 | 1010.1 |
| 20260903224538 | 74 | 302 | 0.0 | 0.0 | 0.00 | 0.30 | 0.30 | 84 | 1010.0 |
| 20260903223041 | 77 | 302 | 0.0 | 0.0 | 0.00 | 0.30 | 0.30 | 80 | 1010.6 |
| 20260903221533 | 78 | 302 | 0.0 | 1.0 | 0.00 | 0.30 | 0.30 | 81 | 1010.5 |
| 20260903220040 | 79 | 302 | 0.0 | 0.0 | 0.00 | 0.30 | 0.30 | 80 | 1010.5 |
| 20260903214535 | 79 | 302 | 0.0 | 0.0 | 0.00 | 0.30 | 0.30 | 81 | 1010.4 |
| 20260903213038 | 79 | 302 | 0.0 | 0.0 | 0.00 | 0.30 | 0.30 | 81 | 1010.5 |
| 20260903211556 | 78 | 302 | 0.0 | 0.0 | 0.00 | 0.30 | 0.30 | 81 | 1010.5 |
| 20260903210030 | 79 | 302 | 0.0 | 0.0 | 0.00 | 0.30 | 0.30 | 78 | 1010.5 |
| 20260903204528 | 79 | 267 | 0.0 | 1.0 | 0.00 | 0.30 | 0.30 | 79 | 1010.5 |
| 20260903203026 | 78 | 172 | 0.0 | 0.0 | 0.00 | 0.30 | 0.30 | 81 | 1010.6 |
| 20260903201522 | 76 | 280 | 0.0 | 1.0 | 0.00 | 0.30 | 0.30 | 83 | 1010.7 |
| 20260903200020 | 76 | 23 | 0.0 | 1.0 | 0.00 | 0.30 | 0.30 | 84 | 1010.8 |
| 20260903194517 | 75 | 139 | 0.0 | 0.0 | 0.00 | 0.30 | 0.30 | 87 | 1011.0 |
| 20260903193012 | 73 | 351 | 0.0 | 0.0 | 0.00 | 0.30 | 0.30 | 87 | 1010.9 |
| 20260903191514 | 72 | 351 | 0.0 | 0.0 | 0.00 | 0.30 | 0.30 | 90 | 1011.1 |
| 20260903190004 | 72 | 300 | 0.0 | 0.0 | 0.00 | 0.30 | 0.30 | 91 | 1011.5 |
| 20260903184607 | 71 | 247 | 0.0 | 1.0 | 0.00 | 0.30 | 0.30 | 92 | 1011.5 |
| 20260903183059 | 70 | 231 | 0.0 | 0.0 | 0.00 | 0.30 | 0.30 | 93 | 1011.5 |
| 20260903181557 | 70 | 231 | 0.0 | 0.0 | 0.00 | 0.30 | 0.30 | 93 | 1011.9 |
| 20260903180106 | 70 | 231 | 0.0 | 0.0 | 0.00 | 0.30 | 0.30 | 93 | 1012.1 |
| 20260903174610 | 70 | 231 | 0.0 | 0.0 | 0.00 | 0.30 | 0.30 | 94 | 1012.3 |
| 20260903173056 | 69 | 231 | 0.0 | 0.0 | 0.00 | 0.30 | 0.30 | 94 | 1012.0 |
| 20260903171551 | 69 | 133 | 0.0 | 1.0 | 0.00 | 0.30 | 0.30 | 96 | 1011.8 |
| 20260903170106 | 68 | 149 | 0.0 | 0.0 | 0.00 | 0.30 | 0.30 | 96 | 1012.0 |
| 20260903164553 | 68 | 96 | 0.0 | 0.0 | 0.00 | 0.30 | 0.30 | 96 | 1012.0 |
| 20260903163047 | 68 | 335 | 0.0 | 1.0 | 0.00 | 0.30 | 0.30 | 97 | 1012.0 |
| 20260903161544 | 67 | 157 | 0.0 | 0.0 | 0.00 | 0.30 | 0.30 | 97 | 1012.0 |
| 20260903160042 | 67 | 157 | 0.0 | 0.0 | 0.00 | 0.30 | 0.30 | 97 | 1012.2 |
| 20260903154540 | 67 | 158 | 0.0 | 0.0 | 0.00 | 0.30 | 0.30 | 97 | 1012.5 |
| 20260903153044 | 66 | 230 | 0.0 | 1.0 | 0.00 | 0.30 | 0.30 | 98 | 1012.6 |
| 20260903151547 | 66 | 230 | 0.0 | 0.0 | 0.00 | 0.30 | 0.30 | 98 | 1012.7 |
| 20260903150037 | 66 | 230 | 0.0 | 0.0 | 0.00 | 0.30 | 0.30 | 98 | 1012.7 |
| 20260903144535 | 65 | 230 | 0.0 | 0.0 | 0.00 | 0.30 | 0.30 | 98 | 1012.9 |
| 20260903143032 | 65 | 230 | 0.0 | 0.0 | 0.00 | 0.30 | 0.30 | 98 | 1012.9 |
| 20260903141529 | 65 | 230 | 0.0 | 0.0 | 0.00 | 0.30 | 0.30 | 98 | 1013.3 |
| 20260903140028 | 64 | 230 | 0.0 | 0.0 | 0.00 | 0.30 | 0.30 | 98 | 1013.4 |
| 20260903134528 | 64 | 230 | 0.0 | 0.0 | 0.00 | 0.30 | 0.30 | 98 | 1013.4 |
| 20260903133025 | 64 | 230 | 0.0 | 0.0 | 0.00 | 0.30 | 0.30 | 98 | 1013.2 |
| 20260903131524 | 64 | 230 | 0.0 | 0.0 | 0.01 | 0.30 | 0.30 | 98 | 1013.3 |
| 20260903130022 | 63 | 230 | 0.0 | 0.0 | 0.01 | 0.30 | 0.30 | 98 | 1013.3 |
| 20260903124519 | 63 | 230 | 0.0 | 0.0 | 0.01 | 0.30 | 0.30 | 98 | 1013.6 |
| 20260903123018 | 63 | 230 | 0.0 | 0.0 | 0.02 | 0.30 | 0.30 | 98 | 1013.7 |
| 20260903121514 | 63 | 254 | 0.0 | 0.0 | 0.01 | 0.28 | 0.28 | 98 | 1014.0 |
| 20260903120021 | 62 | 253 | 0.0 | 0.0 | 0.02 | 0.28 | 0.28 | 98 | 1014.2 |
| 20260903114513 | 62 | 254 | 0.0 | 0.0 | 0.03 | 0.28 | 0.28 | 98 | 1014.4 |
| 20260903113012 | 62 | 254 | 0.0 | 0.0 | 0.03 | 0.28 | 0.28 | 98 | 1014.3 |
| 20260903111511 | 62 | 254 | 0.0 | 0.0 | 0.08 | 0.28 | 0.28 | 98 | 1014.3 |
| 20260903110010 | 62 | 254 | 0.0 | 0.0 | 0.09 | 0.27 | 0.27 | 97 | 1014.4 |
| 20260903104514 | 62 | 254 | 0.0 | 0.0 | 0.11 | 0.26 | 0.26 | 97 | 1014.3 |
| 20260903103010 | 62 | 254 | 0.0 | 0.0 | 0.14 | 0.25 | 0.25 | 97 | 1014.2 |
| 20260903101509 | 62 | 254 | 0.0 | 0.0 | 0.09 | 0.20 | 0.20 | 97 | 1014.4 |
| 20260903100007 | 62 | 254 | 0.0 | 0.0 | 0.08 | 0.18 | 0.18 | 97 | 1014.2 |
| 20260903094508 | 62 | 254 | 0.0 | 0.0 | 0.06 | 0.15 | 0.15 | 97 | 1014.4 |
| 20260903093010 | 62 | 254 | 0.0 | 1.0 | 0.11 | 0.11 | 0.11 | 97 | 1014.6 |
| 20260903091508 | 62 | 103 | 0.0 | 0.0 | 0.11 | 0.11 | 0.11 | 96 | 1014.5 |
| 20260903090004 | 62 | 271 | 0.0 | 1.0 | 0.10 | 0.10 | 0.10 | 96 | 1014.7 |
| 20260903084504 | 63 | 110 | 0.0 | 1.0 | 0.09 | 0.09 | 0.09 | 96 | 1014.5 |
| 20260903083004 | 63 | 118 | 0.0 | 0.0 | 0.00 | 0.00 | 0.00 | 96 | 1014.4 |
| 20260903081502 | 63 | 167 | 0.0 | 0.0 | 0.00 | 0.00 | 0.00 | 97 | 1014.4 |
| 20260903080059 | 62 | 167 | 0.0 | 0.0 | 0.00 | 0.00 | 0.00 | 97 | 1014.8 |
| 20260903074603 | 62 | 167 | 0.0 | 0.0 | 0.00 | 0.00 | 0.00 | 97 | 1015.1 |
| 20260903073105 | 62 | 167 | 0.0 | 0.0 | 0.00 | 0.00 | 0.00 | 97 | 1014.9 |
| 20260903071600 | 62 | 167 | 0.0 | 0.0 | 0.00 | 0.00 | 0.00 | 97 | 1015.1 |
| 20260903070052 | 62 | 167 | 0.0 | 0.0 | 0.00 | 0.00 | 0.00 | 97 | 1015.4 |
| 20260903064549 | 62 | 167 | 0.0 | 0.0 | 0.00 | 0.00 | 0.00 | 97 | 1016.0 |
| 20260903063051 | 62 | 167 | 0.0 | 0.0 | 0.00 | 0.00 | 0.00 | 97 | 1016.2 |
| 20260903061558 | 62 | 167 | 0.0 | 0.0 | 0.00 | 0.00 | 0.00 | 97 | 1016.8 |
| 20260903060043 | 62 | 167 | 0.0 | 0.0 | 0.00 | 0.00 | 0.00 | 97 | 1017.2 |
| 20260903054542 | 62 | 167 | 0.0 | 0.0 | 0.00 | 0.00 | 0.00 | 97 | 1017.2 |
| 20260903053058 | 62 | 139 | 0.0 | 0.0 | 0.00 | 0.00 | 0.00 | 97 | 1017.0 |
| 20260903051541 | 62 | 140 | 0.0 | 0.0 | 0.00 | 0.00 | 0.00 | 97 | 1017.3 |
| 20260903050039 | 62 | 139 | 0.0 | 0.0 | 0.00 | 0.00 | 0.00 | 97 | 1017.2 |
| 20260903044537 | 62 | 140 | 0.0 | 0.0 | 0.00 | 0.00 | 0.00 | 97 | 1017.5 |
| 20260903043041 | 62 | 139 | 0.0 | 0.0 | 0.00 | 0.00 | 0.00 | 97 | 1017.5 |
| 20260903041637 | 62 | 139 | 0.0 | 0.0 | 0.00 | 0.00 | 0.00 | 97 | 1017.6 |
| 20260903040033 | 62 | 139 | 0.0 | 0.0 | 0.00 | 0.00 | 0.00 | 97 | 1017.6 |
| 20260903034531 | 62 | 139 | 0.0 | 0.0 | 0.00 | 0.00 | 0.00 | 97 | 1017.8 |
| 20260903033029 | 62 | 139 | 0.0 | 0.0 | 0.00 | 0.00 | 0.00 | 97 | 1018.2 |
| 20260903031530 | 62 | 139 | 0.0 | 0.0 | 0.00 | 0.00 | 0.00 | 97 | 1018.1 |
| 20260903030050 | 62 | 140 | 0.0 | 0.0 | 0.00 | 0.00 | 0.00 | 97 | 1018.3 |
| 20260903024526 | 62 | 140 | 0.0 | 0.0 | 0.00 | 0.00 | 0.00 | 97 | 1018.3 |
| 20260903023026 | 62 | 139 | 0.0 | 0.0 | 0.00 | 0.00 | 0.00 | 96 | 1018.2 |
| 20260903021525 | 62 | 139 | 0.0 | 0.0 | 0.00 | 0.00 | 0.00 | 96 | 1018.4 |
| 20260903020024 | 62 | 139 | 0.0 | 0.0 | 0.00 | 0.00 | 0.00 | 96 | 1018.6 |
| 20260903014527 | 62 | 140 | 0.0 | 0.0 | 0.00 | 0.00 | 0.00 | 96 | 1018.7 |